Weather History for Cape Romanzoff, AK

Change the Weather History Date:

Thursday, July 18, 2013

  Actual Average Record
Temperature  
Mean Temperature 48 °F -  
Max Temperature 51 °F 53 °F 66 °F (2003)
Min Temperature 44 °F 42 °F 10 °F (2000)
Degree Days  
Heating Degree Days 18    
Moisture  
Dew Point 48 °F    
Average Humidity 98    
Maximum Humidity 100    
Minimum Humidity 91    
Precipitation  
Precipitation 0.01 in - - ()
Sea Level Pressure  
Sea Level Pressure 30.09 in    
Wind  
Wind Speed 4 mph (WSW)    
Max Wind Speed 10 mph    
Max Gust Speed 13 mph    
Visibility 6 miles    
Events Fog , Rain    
Averages and records for this station are not official NWS values.
T = Trace of Precipitation, MM = Missing Value Source: NWS Daily Summary

Daily Weather History Graph

Daily Weather History Graph

Search for Another Location

Airport:

Trip Planner

Search our weather history database for the weather conditions in past years. The results will help you decide how hot, cold, wet, or windy it might be!

Date:

Astronomy

Jul. 18, 2013 Rise Set
Actual Time 5:57 AM AKDT 12:21 AM AKDT
Civil Twilight 4:23 AM AKDT 1:52 AM AKDT
Nautical Twilight Sun does not rise Sun does not rise
Astronomical Twilight Sun does not rise Sun does not rise
Moon 8:21 PM AKDT (7/18) 2:20 AM AKDT (7/18)
Length of Visible Light 21h 29m
Length of Day
18h 23m
Waxing Gibbous, 79% of the Moon is Illuminated
Jul 18
Waxing Gibbous
Jul 22
Full
Jul 29
Last Quarter
Aug 6
New
Aug 14
First Quarter

Hourly Weather History & Observations

Time (AKDT) Temp. Windchill Dew Point Humidity Pressure Visibility Wind Dir Wind Speed Gust Speed Precip Events Conditions
12:50 AM 44.6 °F 43.1 °F 44.6 °F 100% 30.09 in 0.2 mi NNE 3.5 mph - N/A Fog Fog
12:55 AM 44.6 °F - 44.4 °F 99% 30.09 in 0.5 mi NNE 2.3 mph - N/A Fog Fog
1:20 AM 44.6 °F 42.2 °F 44.6 °F 100% 30.09 in 0.2 mi SE 4.6 mph - N/A Fog Fog
1:55 AM - - - N/A% 30.08 in 1.5 mi ENE 3.5 mph - N/A   Mostly Cloudy
2:05 AM 46.4 °F 45.2 °F 46.4 °F 100% 30.09 in 10.0 mi SSW 3.5 mph - N/A   Mostly Cloudy
2:55 AM 46.2 °F - 46.2 °F 100% 30.09 in 10.0 mi WSW 1.2 mph - N/A   Mostly Cloudy
3:20 AM 46.4 °F - 46.4 °F 100% 30.09 in 0.5 mi ESE 2.3 mph - N/A Fog Fog
3:35 AM 48.2 °F - 48.2 °F 100% 30.09 in 10.0 mi Variable 1.2 mph - N/A Fog Patches of Fog
3:50 AM 48.2 °F - 48.2 °F 100% 30.09 in 10.0 mi East 1.2 mph - N/A   Mostly Cloudy
3:55 AM 48.4 °F - 47.7 °F 97% 30.08 in 10.0 mi Variable 1.2 mph - N/A   Mostly Cloudy
4:05 AM 48.2 °F - 48.2 °F 100% 30.08 in 10.0 mi South 1.2 mph - N/A   Mostly Cloudy
4:50 AM 46.4 °F 45.2 °F 46.4 °F 100% 30.06 in 1.5 mi South 3.5 mph - N/A   Mostly Cloudy
4:55 AM 46.8 °F - 46.8 °F 100% 30.06 in 0.5 mi SSW 3.5 mph - N/A Fog Fog
5:05 AM 46.4 °F - 46.4 °F 100% 30.06 in 0.2 mi South 2.3 mph - N/A Fog Fog
5:51 AM 46.4 °F 42.9 °F 46.4 °F 100% 30.05 in 0.5 mi NE 6.9 mph - N/A Fog Patches of Fog
5:55 AM 46.9 °F - 47.1 °F 100% 30.04 in 1.0 mi NE 2.3 mph - N/A Fog Patches of Fog
6:06 AM 48.2 °F - 48.2 °F 100% 30.05 in 10.0 mi NNE 4.6 mph - N/A   Mostly Cloudy
6:55 AM 48.7 °F - 48.4 °F 99% 30.04 in 10.0 mi ENE 2.3 mph - N/A   Overcast
7:06 AM 50.0 °F - 48.2 °F 94% 30.04 in 10.0 mi Variable 3.5 mph - N/A   Overcast
7:55 AM 50.7 °F - 48.2 °F 91% 30.03 in 10.0 mi South 2.3 mph - N/A   Overcast
8:51 AM 50.0 °F - 48.2 °F 94% 30.04 in 10.0 mi Calm Calm - N/A   Overcast
8:55 AM 50.0 °F - 48.4 °F 94% 30.04 in 10.0 mi NNE 1.2 mph - N/A   Overcast
9:06 AM 50.0 °F - 48.2 °F 94% 30.04 in 10.0 mi NE 1.2 mph - N/A   Overcast
9:55 AM 50.5 °F - 49.1 °F 95% 30.03 in 10.0 mi North 2.3 mph - N/A   Overcast
10:06 AM 50.0 °F - 50.0 °F 100% 30.04 in 10.0 mi SW 3.5 mph - N/A   Overcast
10:36 AM 51.8 °F - 50.0 °F 94% 30.04 in 10.0 mi WSW 4.6 mph - N/A   Overcast
10:51 AM 51.8 °F - 50.0 °F 94% 30.04 in 10.0 mi SSW 3.5 mph - N/A   Overcast
10:55 AM 50.9 °F - 49.5 °F 95% 30.04 in 10.0 mi South 2.3 mph - N/A   Overcast
11:06 AM 51.8 °F - 50.0 °F 94% 30.04 in 10.0 mi SE 1.2 mph - N/A   Overcast
11:21 AM 51.8 °F - 50.0 °F 94% 30.04 in 10.0 mi West 2.3 mph - N/A   Overcast
11:36 AM 51.8 °F - 50.0 °F 94% 30.04 in 10.0 mi WSW 3.5 mph - N/A   Overcast
11:51 AM 51.8 °F - 50.0 °F 94% 30.04 in 10.0 mi WNW 3.5 mph - N/A   Overcast
11:55 AM 51.3 °F - 50.5 °F 97% 30.04 in 10.0 mi Variable 2.3 mph - N/A   Overcast
12:21 PM 51.8 °F - 50.0 °F 94% 30.05 in 10.0 mi NNE 4.6 mph - N/A   Overcast
12:36 PM 51.8 °F - 50.0 °F 94% 30.05 in 10.0 mi NE 5.8 mph - N/A Rain Light Rain
12:51 PM 51.8 °F - 50.0 °F 94% 30.05 in 10.0 mi NNE 6.9 mph - N/A   Overcast
12:55 PM 51.6 °F - 50.0 °F 94% 30.05 in 10.0 mi NNE 5.8 mph - N/A   Overcast
1:06 PM 51.8 °F - 50.0 °F 94% 30.06 in 10.0 mi NE 5.8 mph - N/A Rain Light Rain Showers
1:21 PM 51.8 °F - 50.0 °F 94% 30.06 in 10.0 mi NNE 5.8 mph - N/A   Overcast
1:36 PM 51.8 °F - 50.0 °F 94% 30.06 in 5.0 mi ENE 5.8 mph - N/A Rain Light Rain Showers
1:51 PM 51.8 °F - 50.0 °F 94% 30.06 in 0.5 mi WNW 9.2 mph - N/A Rain Light Rain Showers
1:55 PM 51.1 °F - 50.7 °F 99% 30.06 in 0.2 mi NW 8.1 mph - N/A Fog , Rain Light Rain Showers
2:06 PM 51.8 °F - 51.8 °F 100% 30.06 in 3.0 mi NW 5.8 mph - N/A Fog , Rain Light Rain Showers
2:21 PM 51.8 °F - 50.0 °F 94% 30.07 in 1.0 mi West 10.4 mph 12.7 mph N/A Fog Patches of Fog
2:36 PM 50.0 °F - 50.0 °F 100% 30.07 in 0.2 mi NW 6.9 mph - N/A Fog , Rain Light Rain Showers
2:55 PM 48.7 °F - 48.9 °F 100% 30.08 in 0.2 mi NW 8.1 mph - N/A Fog , Rain Light Rain Showers
3:06 PM 50.0 °F - 50.0 °F 100% 30.08 in 6.0 mi NW 4.6 mph - N/A Fog , Rain Light Rain Showers
3:36 PM 50.0 °F - 50.0 °F 100% 30.09 in 2.5 mi Variable 3.5 mph - N/A Rain Light Rain Showers
3:55 PM 48.4 °F - 48.0 °F 99% 30.09 in 2.0 mi SSE 6.9 mph - N/A   Light Drizzle
4:06 PM 48.2 °F - 48.2 °F 100% 30.10 in 1.5 mi Variable 3.5 mph - N/A   Overcast
4:21 PM 48.2 °F - 48.2 °F 100% 30.11 in 0.2 mi SE 6.9 mph - N/A Fog Fog
4:36 PM - - - N/A% 30.11 in 1.5 mi South 3.5 mph - N/A   Overcast
4:55 PM 48.6 °F - 48.7 °F 100% 30.11 in 1.0 mi West 6.9 mph - N/A Fog Patches of Fog
5:06 PM 48.2 °F - 48.2 °F 100% 30.12 in 0.2 mi West 10.4 mph - N/A Fog Patches of Fog
5:55 PM 46.0 °F 42.5 °F 46.4 °F 100% 30.14 in 0.2 mi WSW 6.9 mph - N/A Fog Fog
6:06 PM 46.4 °F 44.3 °F 46.4 °F 100% 30.14 in 0.5 mi Variable 4.6 mph - N/A Fog Patches of Fog
6:21 PM 46.4 °F 44.3 °F 46.4 °F 100% 30.14 in 1.8 mi West 4.6 mph - N/A Rain Light Rain Showers
6:36 PM 46.4 °F 44.3 °F 46.4 °F 100% 30.14 in 3.0 mi WSW 4.6 mph - N/A Rain Light Rain Showers
6:55 PM 45.5 °F 42.5 °F 45.7 °F 100% 30.15 in 10.0 mi West 5.8 mph - N/A Rain Light Rain Showers
7:36 PM 46.4 °F 44.3 °F 46.4 °F 100% 30.16 in 4.0 mi WSW 4.6 mph - N/A   Overcast
7:55 PM - - - N/A% 30.16 in 10.0 mi West 3.5 mph - N/A   Overcast
8:21 PM 46.4 °F 44.3 °F 46.4 °F 100% 30.17 in 10.0 mi Variable 4.6 mph - N/A   Overcast
8:55 PM 45.7 °F 44.4 °F 45.1 °F 98% 30.17 in 10.0 mi WNW 3.5 mph - 0.00 in   Overcast
9:55 PM 45.3 °F - 45.3 °F 100% 30.18 in 10.0 mi South 2.3 mph - N/A   Overcast
10:21 PM 44.6 °F 40.7 °F 44.6 °F 100% 30.20 in 10.0 mi SW 6.9 mph - N/A   Overcast
10:51 PM 44.6 °F 39.7 °F 44.6 °F 100% 30.20 in 0.2 mi SW 9.2 mph - N/A Fog Fog
10:55 PM 44.4 °F 40.0 °F 44.4 °F 100% 30.20 in 0.2 mi WSW 8.1 mph - N/A Fog Fog
11:06 PM 44.6 °F 42.2 °F 44.6 °F 100% 30.20 in 0.2 mi SW 4.6 mph - N/A Fog Fog
11:51 PM - - - N/A% 30.22 in 0.2 mi SW 10.4 mph - N/A Fog Fog
11:55 PM - - - N/A% 30.22 in 0.2 mi SW 9.2 mph - N/A Fog Fog